Flag for U.S.A. Weather past 2 weeks in Juneau, Alaska, U.S.A.

Now
33 °F

Mostly cloudy.


Feels Like: 33 °F
Forecast: 33 / 44 °F
Wind: No wind

Location: Juneau International Airport

Current Time: Oct 23, 2014 at 8:57:09 AM

Latest Report: Oct 23, 2014 at 7:53 AM


Visibility: 10 mi

Pressure: 29.51 "Hg

Humidity: 100%

Dew point: 33 °F

Location of JuneauLocation

Historic Weather in Juneau — Graph

°F

Juneau temperature yesterday

Maximum temperature yesterday: 48 °F (at 1:53 PM)
Minimum temperature yesterday: 35 °F (at 11:53 PM)
Average temperature yesterday: 43 °F

Past Weeks' High & Low Weather Summary

 TemperatureHumidityPressure
High54 °F (Oct 9, 10:53 PM)100% (Oct 8, 11:53 PM)30.02 "Hg (Oct 8, 11:53 PM)
Low32 °F (Oct 17, 6:53 AM)49% (Oct 17, 3:53 PM)28.95 "Hg (Oct 19, 3:53 PM)
Average46 °F90%29.44 "Hg
* Reported Oct 8 6:53 AM — Oct 23 6:53 AM, Juneau, Weather by CustomWeather, © 2014

Note: Actual official high and low records may vary slightly from our data, if they occured in-between our weather recording intervals... More about our weather records

Advertising

Juneau weather history for previous 24 hours

 ConditionsComfort  
Time TempWeatherWind HumidityBarometerVisibility
6:53 AM
Oct 23
32 °FPartly cloudy.No wind100%29.48 "Hg7 mi
5:53 AM32 °FFog.No wind96%29.46 "Hg1 mi
4:53 AM32 °FFog.No wind96%29.44 "Hg1 mi
3:53 AM32 °FIce fog.No wind100%29.43 "Hg1 mi
3:01 AM33 °FPassing clouds.No wind96%29.42 "Hg7 mi
1:53 AM34 °FFog.No wind97%29.42 "Hg0 mi
12:53 AM34 °FFog.No wind100%29.41 "Hg1 mi
11:53 PM
Oct 22
35 °FFog.No wind96%29.42 "Hg0 mi
10:53 PM36 °FLight fog.No wind100%29.43 "Hg10 mi
9:53 PM36 °FPassing clouds.3 mph97%29.43 "Hg8 mi
8:53 PM39 °FFog.No wind96%29.44 "Hg6 mi
7:53 PM41 °FPassing clouds.No wind93%29.44 "Hg10 mi
6:53 PM42 °FPassing clouds.No wind92%29.44 "Hg10 mi
5:53 PM45 °FScattered clouds.7 mph90%29.44 "Hg10 mi
4:53 PM46 °FPartly sunny.8 mph89%29.44 "Hg10 mi
3:53 PM48 °FScattered clouds.12 mph80%29.44 "Hg10 mi
2:53 PM48 °FPartly sunny.14 mph80%29.43 "Hg10 mi
1:53 PM48 °FMostly cloudy.15 mph80%29.41 "Hg10 mi
12:53 PM47 °FMostly cloudy.18 mph90%29.40 "Hg10 mi
11:53 AM47 °FMostly cloudy.16 mph86%29.38 "Hg10 mi
10:53 AM44 °FLight rain. Fog.15 mph89%29.34 "Hg5 mi
9:53 AM44 °FLight rain. Mostly cloudy.18 mph93%29.30 "Hg7 mi
8:53 AM44 °FLight rain. Mostly cloudy.20 mph89%29.27 "Hg7 mi
Weather by CustomWeather, © 2014

See weather overviewHow to use our weather pages